Weather History for KMGW - March, 2013

Change the Weather History Date:

Monday, March 11, 2013

  Actual Average Record
Temperature  
Mean Temperature 60 °F 40 °F  
Max Temperature 66 °F 50 °F 75 °F (1977)
Min Temperature 53 °F 31 °F 5 °F (1960)
Degree Days  
Heating Degree Days 5 25  
Month to date heating degree days 271 289  
Since 1 July heating degree days 3962 4178  
Cooling Degree Days 0 0  
Month to date cooling degree days 0 0  
Year to date cooling degree days 0 0  
Growing Degree Days 10 (Base 50)    
Moisture  
Dew Point 33 °F    
Average Humidity 57    
Maximum Humidity 89    
Minimum Humidity 24    
Precipitation  
Precipitation 0.21 in 0.12 in 0.67 in (1955)
Month to date precipitation 0.78 1.21  
Year to date precipitation 5.35 6.62  
Sea Level Pressure  
Sea Level Pressure 29.87 in    
Wind  
Wind Speed 9 mph (SSE)    
Max Wind Speed 25 mph    
Max Gust Speed 35 mph    
Visibility 10 miles    
Events Rain    
T = Trace of Precipitation, MM = Missing Value Source: NWS Daily Summary

Daily Weather History Graph

Daily Weather History Graph

Search for Another Location

Airport or City:

Trip Planner

Search our weather history database for the weather conditions in past years. The results will help you decide how hot, cold, wet, or windy it might be!

Date:

Astronomy

Mar. 11, 2013 Rise Set
Actual Time 7:37 AM EDT 7:22 PM EDT
Civil Twilight 7:10 AM EDT 7:49 PM EDT
Nautical Twilight 6:39 AM EDT 8:20 PM EDT
Astronomical Twilight 6:07 AM EDT 8:52 PM EDT
Moon 7:09 AM EDT (3/11) 7:33 PM EDT (3/11)
Length of Visible Light 12h 39m
Length of Day
11h 45m
Waning Crescent, 0% of the Moon is Illuminated
Mar 11
Waning Crescent
Mar 11
New
Mar 19
First Quarter
Mar 27
Full
Apr 3
Last Quarter

Hourly Weather History & Observations

Time (EDT) Temp. Dew Point Humidity Pressure Visibility Wind Dir Wind Speed Gust Speed Precip Events Conditions
12:53 AM 55.9 °F 28.9 °F 36% 30.01 in 10.0 mi SE 6.9 mph - N/A   Clear
1:53 AM 57.0 °F 30.0 °F 36% 29.99 in 10.0 mi SSE 9.2 mph - N/A   Clear
2:53 AM 57.0 °F 30.0 °F 36% 29.97 in 10.0 mi SSE 11.5 mph - N/A   Clear
3:53 AM 57.9 °F 28.0 °F 32% 29.94 in 10.0 mi SSE 9.2 mph - N/A   Clear
4:53 AM 57.0 °F 28.0 °F 33% 29.91 in 10.0 mi South 5.8 mph - N/A   Clear
5:53 AM 57.0 °F 28.0 °F 33% 29.91 in 10.0 mi Calm Calm - N/A   Clear
6:53 AM 60.1 °F 26.1 °F 27% 29.92 in 10.0 mi Variable 4.6 mph - N/A   Clear
7:53 AM 57.9 °F 27.0 °F 31% 29.92 in 10.0 mi SSE 3.5 mph - N/A   Clear
8:53 AM 55.9 °F 28.9 °F 36% 29.94 in 10.0 mi ESE 5.8 mph - N/A   Clear
9:53 AM 59.0 °F 30.9 °F 35% 29.95 in 10.0 mi ESE 4.6 mph - N/A   Clear
10:53 AM 64.0 °F 26.1 °F 24% 29.93 in 10.0 mi South 5.8 mph - N/A   Clear
11:53 AM 64.9 °F 26.1 °F 23% 29.91 in 10.0 mi SSE 6.9 mph - N/A   Clear
12:53 PM 64.9 °F 27.0 °F 24% 29.88 in 10.0 mi South 13.8 mph - N/A   Clear
1:53 PM 64.9 °F 27.0 °F 24% 29.86 in 10.0 mi South 12.7 mph - N/A   Mostly Cloudy
2:53 PM 64.9 °F 27.0 °F 24% 29.84 in 10.0 mi South 13.8 mph - N/A   Mostly Cloudy
3:53 PM 64.0 °F 34.0 °F 33% 29.82 in 10.0 mi SSE 15.0 mph 19.6 mph 0.00 in Rain Light Rain
4:53 PM 62.1 °F 35.1 °F 37% 29.78 in 10.0 mi South 9.2 mph 17.3 mph 0.00 in   Overcast
5:53 PM 61.0 °F 37.9 °F 42% 29.78 in 10.0 mi South 16.1 mph 28.8 mph N/A   Clear
6:53 PM 60.1 °F 39.0 °F 46% 29.76 in 10.0 mi South 18.4 mph 29.9 mph N/A   Overcast
7:53 PM 60.1 °F 39.9 °F 47% 29.75 in 10.0 mi South 15.0 mph 21.9 mph 0.00 in   Overcast
8:53 PM 60.1 °F 43.0 °F 53% 29.75 in 10.0 mi South 10.4 mph 25.3 mph N/A   Overcast
9:53 PM 60.1 °F 44.1 °F 55% 29.76 in 10.0 mi South 9.2 mph 17.3 mph N/A   Overcast
10:53 PM 57.0 °F 46.9 °F 69% 29.78 in 4.0 mi Calm Calm - 0.02 in Rain Rain
11:53 PM 54.0 °F 50.0 °F 86% 29.77 in 4.0 mi Calm Calm - 0.08 in Rain Light Rain